This is the latest recevied weather packets stored in our database for station/object DL1MMS-10. If no packets are shown the sender has not sent any weather packets the latest 10 day(s).
| Time | Temp. | Humidity | Pressure | Rain* | Wind** | Luminosity | Snow |
|---|---|---|---|---|---|---|---|
| 1777968160 | 16.67° C | 71% | 1010.2 hPa | 0 mm | - | - | - |
| 1777967860 | 16.67° C | 71% | 1010 hPa | 0 mm | - | - | - |
| 1777967560 | 16.11° C | 73% | 1010.2 hPa | 0 mm | - | - | - |
| 1777967259 | 15.56° C | 75% | 1010.3 hPa | 0 mm | - | - | - |
| 1777966959 | 15° C | 75% | 1010.2 hPa | 0 mm | - | - | - |
| 1777966659 | 14.44° C | 76% | 1010.4 hPa | 0 mm | - | - | - |
| 1777966359 | 13.89° C | 78% | 1010.3 hPa | 0 mm | - | - | - |
| 1777966058 | 13.89° C | 79% | 1010.4 hPa | 0 mm | - | - | - |
| 1777965758 | 13.33° C | 80% | 1010.3 hPa | 0 mm | - | - | - |
| 1777965458 | 12.78° C | 81% | 1010.5 hPa | 0 mm | - | - | - |
| 1777965158 | 12.78° C | 82% | 1010.5 hPa | 0 mm | - | - | - |
| 1777964857 | 12.22° C | 82% | 1010.7 hPa | 0 mm | - | - | - |
| 1777964557 | 11.67° C | 83% | 1010.5 hPa | 0 mm | - | - | - |
| 1777964257 | 11.11° C | 83% | 1010.7 hPa | 0 mm | - | - | - |
| 1777963956 | 11.11° C | 84% | 1010.7 hPa | 0 mm | - | - | - |
| 1777963656 | 10.56° C | 84% | 1010.6 hPa | 0 mm | - | - | - |
| 1777963356 | 10° C | 84% | 1010.8 hPa | 0 mm | - | - | - |
| 1777963056 | 10° C | 84% | 1010.8 hPa | 0 mm | - | - | - |
| 1777962755 | 9.44° C | 85% | 1010.8 hPa | 0 mm | - | - | - |
| 1777962455 | 9.44° C | 85% | 1010.9 hPa | 0 mm | - | - | - |
| 1777962155 | 9.44° C | 85% | 1010.9 hPa | 0 mm | - | - | - |
| 1777961854 | 8.89° C | 85% | 1010.9 hPa | 0 mm | - | - | - |
| 1777961554 | 8.89° C | 85% | 1011 hPa | 0 mm | - | - | - |
| 1777961254 | 8.89° C | 86% | 1011 hPa | 0 mm | - | - | - |
| 1777960954 | 8.89° C | 86% | 1011.1 hPa | 0 mm | - | - | - |
* Rain latest hour (hover to see other rain measurements)
** Current wind speed in m/s (hover to see current wind gust speed)